START_TIME,STEP,MOV.,M34,t_acc.,L5,t_acc.,L18,t_acc.,L14,t_acc.
1981-08-29 03:00:25.350 ,7,1,0.,12.0,0.,12.0,0.,12.0,0.,12.0
1981-08-29 03:00:37.350 ,7,1,0.,12.0,0.,12.0,0.,12.0,0.,12.0
1981-08-29 03:00:49.350 ,7,1,0.,12.0,0.,12.0,0.,12.0,0.,12.0
1981-08-29 03:01:01.350 ,7,1,0.,12.0,0.,12.0,0.,12.0,0.,12.0
1981-08-29 03:01:13.350 ,7,0,0.,12.0,0.,12.0,0.,12.0,0.,12.0
1981-08-29 03:01:25.350 ,7,0,0.,12.0,0.,12.0,0.,12.0,0.,12.0
1981-08-29 03:01:37.350 ,6,1,0.,12.0,0.,12.0,0.,12.0,0.,12.0
1981-08-29 03:01:49.350 ,6,1,0.,12.0,0.,12.0,0.,12.0,0.,12.0
1981-08-29 03:02:01.350 ,6,0,0.,12.0,0.,12.0,0.,12.0,0.,12.0
1981-08-29 03:02:13.350 ,6,0,0.,12.0,0.,12.0,0.,12.0,0.,12.0
1981-08-29 03:02:25.350 ,5,1,0.,12.0,0.,12.0,0.,12.0,0.,12.0
1981-08-29 03:02:37.350 ,5,1,0.,12.0,0.,12.0,0.,12.0,0.,12.0
1981-08-29 03:02:49.350 ,5,0,0.,12.0,0.,12.0,0.,12.0,0.,12.0
1981-08-29 03:03:01.350 ,5,0,0.,12.0,0.,12.0,0.,12.0,0.,12.0
1981-08-29 03:03:13.350 ,4,1,0.,12.0,0.,12.0,0.,12.0,0.,12.0
1981-08-29 03:03:25.350 ,4,1,0.,12.0,0.,12.0,0.,12.0,0.,12.0
1981-08-29 03:03:37.350 ,4,0,0.,12.0,0.,12.0,0.,12.0,0.,12.0
1981-08-29 03:03:49.350 ,4,0,0.,12.0,0.,12.0,0.,12.0,0.,12.0
1981-08-29 03:04:01.350 ,3,1,0.,12.0,0.,12.0,0.,12.0,0.,12.0
1981-08-29 03:04:13.350 ,3,1,0.,12.0,0.,12.0,0.,12.0,0.,12.0
1981-08-29 03:04:25.350 ,3,0,0.,12.0,0.,12.0,0.,12.0,0.,12.0
1981-08-29 03:04:37.350 ,3,0,0.,12.0,0.,12.0,0.,12.0,0.,12.0
1981-08-29 03:04:49.350 ,2,1,0.,12.0,0.,12.0,0.,12.0,0.,12.0
1981-08-29 03:05:01.350 ,2,1,0.,12.0,0.,12.0,0.,12.0,0.,12.0
1981-08-29 03:05:13.350 ,2,0,0.,12.0,0.,12.0,0.,12.0,0.,12.0
1981-08-29 03:05:25.350 ,2,0,0.,12.0,0.,12.0,0.,12.0,0.,12.0
1981-08-29 03:05:37.350 ,1,1,0.,12.0,0.,12.0,0.,12.0,0.,12.0
1981-08-29 03:05:49.350 ,1,1,0.,12.0,0.,12.0,0.,12.0,0.,12.0
1981-08-29 03:06:01.350 ,1,0,0.,12.0,0.,12.0,0.,12.0,0.,12.0
1981-08-29 03:06:13.350 ,1,0,0.,12.0,0.,12.0,0.,12.0,0.,12.0
1981-08-29 03:06:25.350 ,0,1,0.,12.0,0.,12.0,0.,12.0,0.,12.0
1981-08-29 03:06:37.350 ,0,1,0.,12.0,0.,12.0,0.,12.0,0.,12.0
1981-08-29 03:06:49.350 ,0,0,0.,12.0,0.,12.0,0.,12.0,0.,12.0
1981-08-29 03:07:01.350 ,0,0,0.,12.0,0.,12.0,0.,12.0,0.,12.0
1981-08-29 03:07:13.350 ,0,1,0.,12.0,0.,12.0,0.,12.0,0.,12.0
1981-08-29 03:07:25.350 ,0,1,0.,12.0,0.,12.0,0.,12.0,0.,12.0
1981-08-29 03:07:37.350 ,0,0,0.,12.0,0.,12.0,0.,12.0,0.,12.0
1981-08-29 03:07:49.350 ,0,0,0.,12.0,0.,12.0,0.,12.0,0.,12.0
1981-08-29 03:08:01.350 ,1,1,0.,12.0,0.,12.0,0.,12.0,0.,12.0
1981-08-29 03:08:13.350 ,1,1,0.,12.0,0.,12.0,0.,12.0,0.,12.0
1981-08-29 03:08:25.350 ,1,0,0.,12.0,0.,12.0,0.,12.0,0.,12.0
1981-08-29 03:08:37.350 ,1,0,0.,12.0,0.,12.0,0.,12.0,0.,12.0
1981-08-29 03:08:49.350 ,2,1,0.,12.0,0.,12.0,0.,12.0,0.,12.0
1981-08-29 03:09:01.350 ,2,1,0.,12.0,0.,12.0,0.,12.0,0.,12.0
1981-08-29 03:09:13.350 ,2,0,0.,12.0,0.,12.0,0.,12.0,0.,12.0
1981-08-29 03:09:25.350 ,2,0,0.,12.0,0.,12.0,0.,12.0,0.,12.0
1981-08-29 03:09:37.350 ,3,1,0.,12.0,0.,12.0,0.,12.0,0.,12.0
1981-08-29 03:09:49.350 ,3,1,0.,12.0,0.,12.0,0.,12.0,0.,12.0
1981-08-29 03:10:01.350 ,3,0,0.,12.0,0.,12.0,0.,12.0,0.,12.0
1981-08-29 03:10:13.350 ,3,0,0.,12.0,0.,12.0,0.,12.0,0.,12.0
1981-08-29 03:10:25.350 ,4,1,0.,12.0,0.,12.0,0.,12.0,0.,12.0
1981-08-29 03:10:37.350 ,4,1,0.,12.0,0.,12.0,0.,12.0,0.,12.0
1981-08-29 03:10:49.350 ,4,0,0.,12.0,0.,12.0,0.,12.0,1.,12.0
1981-08-29 03:11:01.350 ,4,0,0.,12.0,0.,12.0,0.,12.0,0.,12.0
1981-08-29 03:11:13.350 ,5,1,0.,12.0,0.,12.0,0.,12.0,0.,12.0
1981-08-29 03:11:25.350 ,5,1,0.,12.0,0.,12.0,0.,12.0,0.,12.0
1981-08-29 03:11:37.350 ,5,0,0.,12.0,0.,12.0,0.,12.0,0.,12.0
1981-08-29 03:11:49.350 ,5,0,0.,12.0,0.,12.0,0.,12.0,0.,12.0
1981-08-29 03:12:01.350 ,6,1,0.,12.0,0.,12.0,0.,12.0,0.,12.0
1981-08-29 03:12:13.350 ,6,1,0.,12.0,0.,12.0,0.,12.0,0.,12.0
1981-08-29 03:12:25.350 ,6,0,0.,12.0,0.,12.0,0.,12.0,0.,12.0
1981-08-29 03:12:37.350 ,6,0,0.,12.0,0.,12.0,0.,12.0,0.,12.0
1981-08-29 03:12:49.350 ,7,1,0.,12.0,0.,12.0,0.,12.0,0.,12.0
1981-08-29 03:13:01.350 ,7,1,0.,12.0,0.,12.0,0.,12.0,0.,12.0
1981-08-29 03:13:13.350 ,7,0,0.,12.0,0.,12.0,0.,12.0,0.,12.0
1981-08-29 03:13:25.350 ,7,0,0.,12.0,0.,12.0,0.,12.0,0.,12.0
1981-08-29 03:13:37.350 ,7,1,0.,12.0,0.,12.0,0.,12.0,0.,12.0
1981-08-29 03:13:49.350 ,7,1,0.,12.0,0.,12.0,0.,12.0,0.,12.0
1981-08-29 03:14:01.350 ,6,1,0.,12.0,0.,12.0,0.,12.0,0.,12.0
1981-08-29 03:14:13.350 ,6,1,0.,12.0,0.,12.0,0.,12.0,0.,12.0
1981-08-29 03:14:25.350 ,5,1,0.,12.0,0.,12.0,0.,12.0,0.,12.0
1981-08-29 03:14:37.350 ,5,1,0.,12.0,0.,12.0,0.,12.0,0.,12.0
1981-08-29 03:14:49.350 ,4,1,0.,12.0,0.,12.0,0.,12.0,0.,12.0
1981-08-29 03:15:01.350 ,4,1,0.,12.0,0.,12.0,0.,12.0,0.,12.0
1981-08-29 03:15:13.350 ,3,1,0.,12.0,0.,12.0,0.,12.0,0.,12.0
1981-08-29 03:15:25.350 ,3,1,0.,12.0,0.,12.0,0.,12.0,0.,12.0
1981-08-29 03:15:37.350 ,2,1,0.,12.0,0.,12.0,0.,12.0,0.,12.0
1981-08-29 03:15:49.350 ,2,1,0.,12.0,0.,12.0,0.,12.0,0.,12.0
1981-08-29 03:16:01.350 ,1,1,0.,12.0,0.,12.0,0.,12.0,0.,12.0
1981-08-29 03:16:13.350 ,1,1,0.,12.0,0.,12.0,0.,12.0,0.,12.0
1981-08-29 03:16:25.350 ,0,1,0.,12.0,0.,12.0,0.,12.0,0.,12.0
1981-08-29 03:16:37.350 ,0,1,0.,12.0,0.,12.0,0.,12.0,0.,12.0
1981-08-29 03:16:49.350 ,0,1,0.,12.0,0.,12.0,0.,12.0,0.,12.0
1981-08-29 03:17:01.350 ,0,1,0.,12.0,0.,12.0,0.,12.0,0.,12.0
1981-08-29 03:17:13.350 ,1,1,0.,12.0,0.,12.0,0.,12.0,0.,12.0
1981-08-29 03:17:25.350 ,1,1,0.,12.0,0.,12.0,0.,12.0,0.,12.0
1981-08-29 03:17:37.350 ,2,1,0.,12.0,0.,12.0,0.,12.0,0.,12.0
1981-08-29 03:17:49.350 ,2,1,0.,12.0,0.,12.0,0.,12.0,0.,12.0
1981-08-29 03:18:01.350 ,3,1,0.,12.0,0.,12.0,0.,12.0,0.,12.0
1981-08-29 03:18:13.350 ,3,1,0.,12.0,0.,12.0,0.,12.0,0.,12.0
1981-08-29 03:18:25.350 ,4,1,0.,12.0,0.,12.0,0.,12.0,0.,12.0
1981-08-29 03:18:37.350 ,4,1,0.,12.0,0.,12.0,0.,12.0,0.,12.0
1981-08-29 03:18:49.350 ,5,1,0.,12.0,0.,12.0,0.,12.0,0.,12.0
1981-08-29 03:19:01.350 ,5,1,0.,12.0,0.,12.0,0.,12.0,0.,12.0
1981-08-29 03:19:13.350 ,6,1,0.,12.0,0.,12.0,0.,12.0,0.,12.0
1981-08-29 03:19:25.350 ,6,1,0.,12.0,0.,12.0,0.,12.0,0.,12.0
1981-08-29 03:19:37.350 ,7,1,0.,12.0,0.,12.0,0.,12.0,0.,12.0
1981-08-29 03:19:49.350 ,7,1,0.,12.0,0.,12.0,0.,12.0,0.,12.0
1981-08-29 03:20:01.350 ,7,1,0.,12.0,0.,12.0,0.,12.0,0.,12.0
1981-08-29 03:20:13.350 ,7,1,0.,12.0,0.,12.0,0.,12.0,0.,12.0
1981-08-29 03:20:25.350 ,7,0,0.,12.0,0.,12.0,0.,12.0,0.,12.0
1981-08-29 03:20:37.350 ,7,0,0.,12.0,0.,12.0,0.,12.0,0.,12.0
1981-08-29 03:20:49.350 ,6,1,0.,12.0,0.,12.0,0.,12.0,0.,12.0
1981-08-29 03:21:01.350 ,6,1,0.,12.0,0.,12.0,0.,12.0,0.,12.0
1981-08-29 03:21:13.350 ,6,0,0.,12.0,0.,12.0,0.,12.0,0.,12.0
1981-08-29 03:21:25.350 ,6,0,0.,12.0,0.,12.0,0.,12.0,0.,12.0
1981-08-29 03:21:37.350 ,5,1,0.,12.0,0.,12.0,0.,12.0,0.,12.0
1981-08-29 03:21:49.350 ,5,1,0.,12.0,0.,12.0,0.,12.0,0.,12.0
1981-08-29 03:22:01.350 ,5,0,0.,12.0,0.,12.0,0.,12.0,0.,12.0
1981-08-29 03:22:13.350 ,5,0,0.,12.0,0.,12.0,0.,12.0,0.,12.0
1981-08-29 03:22:25.350 ,4,1,0.,12.0,0.,12.0,0.,12.0,0.,12.0
1981-08-29 03:22:37.350 ,4,1,0.,12.0,0.,12.0,0.,12.0,0.,12.0
1981-08-29 03:22:49.350 ,4,0,0.,12.0,0.,12.0,0.,12.0,0.,12.0
1981-08-29 03:23:01.350 ,4,0,0.,12.0,0.,12.0,0.,12.0,0.,12.0
1981-08-29 03:23:13.350 ,3,1,0.,12.0,0.,12.0,0.,12.0,0.,12.0
1981-08-29 03:23:25.350 ,3,1,0.,12.0,0.,12.0,0.,12.0,0.,12.0
1981-08-29 03:23:37.350 ,3,0,0.,12.0,0.,12.0,0.,12.0,0.,12.0
1981-08-29 03:23:49.350 ,3,0,0.,12.0,0.,12.0,0.,12.0,0.,12.0
1981-08-29 03:24:01.350 ,2,1,0.,12.0,0.,12.0,0.,12.0,0.,12.0
1981-08-29 03:24:13.350 ,2,1,0.,12.0,0.,12.0,0.,12.0,0.,12.0
1981-08-29 03:24:25.350 ,2,0,0.,12.0,0.,12.0,0.,12.0,0.,12.0
1981-08-29 03:24:37.350 ,2,0,0.,12.0,0.,12.0,0.,12.0,0.,12.0
1981-08-29 03:24:49.350 ,1,1,0.,12.0,0.,12.0,0.,12.0,0.,12.0
1981-08-29 03:25:01.350 ,1,1,0.,12.0,0.,12.0,0.,12.0,0.,12.0
1981-08-29 03:25:13.350 ,1,0,0.,12.0,0.,12.0,0.,12.0,0.,12.0
1981-08-29 03:25:25.350 ,1,0,0.,12.0,0.,12.0,0.,12.0,0.,12.0
1981-08-29 03:25:37.350 ,0,1,0.,12.0,0.,12.0,0.,12.0,0.,12.0
1981-08-29 03:25:49.350 ,0,1,0.,12.0,0.,12.0,0.,12.0,0.,12.0
1981-08-29 03:26:01.350 ,0,0,0.,12.0,0.,12.0,0.,12.0,0.,12.0
1981-08-29 03:26:13.350 ,0,0,0.,12.0,0.,12.0,0.,12.0,0.,12.0
1981-08-29 03:26:25.350 ,0,1,0.,12.0,0.,12.0,0.,12.0,0.,12.0
1981-08-29 03:26:37.350 ,0,1,0.,12.0,0.,12.0,0.,12.0,0.,12.0
1981-08-29 03:26:49.350 ,0,0,0.,12.0,0.,12.0,0.,12.0,0.,12.0
1981-08-29 03:27:01.350 ,0,0,0.,12.0,0.,12.0,0.,12.0,0.,12.0
1981-08-29 03:27:13.350 ,1,1,0.,12.0,0.,12.0,0.,12.0,0.,12.0
1981-08-29 03:27:25.350 ,1,1,0.,12.0,0.,12.0,0.,12.0,0.,12.0
1981-08-29 03:27:37.350 ,1,0,0.,12.0,0.,12.0,0.,12.0,0.,12.0
1981-08-29 03:27:49.350 ,1,0,0.,12.0,0.,12.0,0.,12.0,0.,12.0
1981-08-29 03:28:01.350 ,2,1,0.,12.0,0.,12.0,0.,12.0,0.,12.0
1981-08-29 03:28:13.350 ,2,1,0.,12.0,0.,12.0,0.,12.0,0.,12.0
1981-08-29 03:28:25.350 ,2,0,0.,12.0,0.,12.0,0.,12.0,0.,12.0
1981-08-29 03:28:37.350 ,2,0,0.,12.0,0.,12.0,0.,12.0,0.,12.0
1981-08-29 03:28:49.350 ,3,1,0.,12.0,0.,12.0,0.,12.0,0.,12.0
1981-08-29 03:29:01.350 ,3,1,0.,12.0,0.,12.0,0.,12.0,0.,12.0
1981-08-29 03:29:13.350 ,3,0,0.,12.0,0.,12.0,0.,12.0,0.,12.0
1981-08-29 03:29:25.350 ,3,0,0.,12.0,0.,12.0,0.,12.0,0.,12.0
1981-08-29 03:29:37.350 ,4,1,0.,12.0,0.,12.0,0.,12.0,0.,12.0
1981-08-29 03:29:49.350 ,4,1,0.,12.0,0.,12.0,0.,12.0,0.,12.0
1981-08-29 03:30:01.350 ,4,0,0.,12.0,0.,12.0,0.,12.0,0.,12.0
1981-08-29 03:30:13.350 ,4,0,0.,12.0,0.,12.0,0.,12.0,0.,12.0
1981-08-29 03:30:25.350 ,5,1,0.,12.0,0.,12.0,0.,12.0,0.,12.0
1981-08-29 03:30:37.350 ,5,1,0.,12.0,0.,12.0,0.,12.0,0.,12.0
1981-08-29 03:30:49.350 ,5,0,0.,12.0,0.,12.0,0.,12.0,0.,12.0
1981-08-29 03:31:01.350 ,5,0,0.,12.0,0.,12.0,0.,12.0,0.,12.0
1981-08-29 03:31:13.350 ,6,1,0.,12.0,0.,12.0,0.,12.0,0.,12.0
1981-08-29 03:31:25.350 ,6,1,0.,12.0,0.,12.0,0.,12.0,0.,12.0
1981-08-29 03:31:37.350 ,6,0,0.,12.0,0.,12.0,0.,12.0,0.,12.0
1981-08-29 03:31:49.350 ,6,0,0.,12.0,0.,12.0,0.,12.0,0.,12.0
1981-08-29 03:32:01.350 ,7,1,0.,12.0,0.,12.0,0.,12.0,0.,12.0
1981-08-29 03:32:13.350 ,7,1,0.,12.0,0.,12.0,0.,12.0,0.,12.0
1981-08-29 03:32:25.350 ,7,0,0.,12.0,0.,12.0,0.,12.0,0.,12.0
1981-08-29 03:32:37.350 ,7,0,0.,12.0,0.,12.0,0.,12.0,0.,12.0
1981-08-29 03:32:49.350 ,7,1,0.,12.0,0.,12.0,0.,12.0,0.,12.0
1981-08-29 03:33:01.350 ,7,1,0.,12.0,0.,12.0,0.,12.0,0.,12.0
1981-08-29 03:33:13.350 ,6,1,0.,12.0,0.,12.0,0.,12.0,0.,12.0
1981-08-29 03:33:25.350 ,6,1,0.,12.0,0.,12.0,0.,12.0,0.,12.0
1981-08-29 03:33:37.350 ,5,1,0.,12.0,0.,12.0,0.,12.0,0.,12.0
1981-08-29 03:33:49.350 ,5,1,0.,12.0,0.,12.0,0.,12.0,0.,12.0
1981-08-29 03:34:01.350 ,4,1,0.,12.0,0.,12.0,0.,12.0,0.,12.0
1981-08-29 03:34:13.350 ,4,1,0.,12.0,0.,12.0,0.,12.0,0.,12.0
1981-08-29 03:34:25.350 ,3,1,0.,12.0,0.,12.0,0.,12.0,0.,12.0
1981-08-29 03:34:37.350 ,3,1,0.,12.0,0.,12.0,0.,12.0,0.,12.0
1981-08-29 03:34:49.350 ,2,1,0.,12.0,0.,12.0,0.,12.0,0.,12.0
1981-08-29 03:35:01.350 ,2,1,0.,12.0,0.,12.0,0.,12.0,0.,12.0
1981-08-29 03:35:13.350 ,1,1,0.,12.0,0.,12.0,0.,12.0,0.,12.0
1981-08-29 03:35:25.350 ,1,1,0.,12.0,0.,12.0,0.,12.0,0.,12.0
1981-08-29 03:35:37.350 ,0,1,0.,12.0,0.,12.0,0.,12.0,0.,12.0
1981-08-29 03:35:49.350 ,0,1,0.,12.0,0.,12.0,0.,12.0,0.,12.0
1981-08-29 03:36:01.350 ,0,1,0.,12.0,0.,12.0,0.,12.0,0.,12.0
1981-08-29 03:36:13.350 ,0,1,0.,12.0,0.,12.0,0.,12.0,0.,12.0
1981-08-29 03:36:25.350 ,1,1,0.,12.0,0.,12.0,0.,12.0,0.,12.0
1981-08-29 03:36:37.350 ,1,1,0.,12.0,0.,12.0,0.,12.0,0.,12.0
1981-08-29 03:36:49.350 ,2,1,0.,12.0,0.,12.0,0.,12.0,0.,12.0
1981-08-29 03:37:01.350 ,2,1,0.,12.0,0.,12.0,0.,12.0,0.,12.0
1981-08-29 03:37:13.350 ,3,1,0.,12.0,0.,12.0,0.,12.0,0.,12.0
1981-08-29 03:37:25.350 ,3,1,0.,12.0,0.,12.0,0.,12.0,0.,12.0
1981-08-29 03:37:37.350 ,4,1,0.,12.0,0.,12.0,0.,12.0,0.,12.0
1981-08-29 03:37:49.350 ,4,1,0.,12.0,0.,12.0,0.,12.0,0.,12.0
1981-08-29 03:38:01.350 ,5,1,0.,12.0,0.,12.0,0.,12.0,0.,12.0
1981-08-29 03:38:13.350 ,5,1,0.,12.0,0.,12.0,0.,12.0,0.,12.0
1981-08-29 03:38:25.350 ,6,1,0.,12.0,0.,12.0,0.,12.0,0.,12.0
1981-08-29 03:38:37.350 ,6,1,0.,12.0,0.,12.0,0.,12.0,0.,12.0
1981-08-29 03:38:49.350 ,7,1,0.,12.0,0.,12.0,0.,12.0,0.,12.0
1981-08-29 03:39:01.350 ,7,1,0.,12.0,0.,12.0,0.,12.0,0.,12.0
1981-08-29 03:39:13.350 ,7,1,0.,12.0,0.,12.0,0.,12.0,0.,12.0
1981-08-29 03:39:25.350 ,7,1,0.,12.0,0.,12.0,0.,12.0,0.,12.0
1981-08-29 03:39:37.350 ,7,0,0.,12.0,0.,12.0,0.,12.0,0.,12.0
1981-08-29 03:39:49.350 ,7,0,0.,12.0,0.,12.0,0.,12.0,0.,12.0
1981-08-29 03:40:01.350 ,6,1,0.,12.0,0.,12.0,0.,12.0,0.,12.0
1981-08-29 03:40:13.350 ,6,1,0.,12.0,0.,12.0,0.,12.0,0.,12.0
1981-08-29 03:40:25.350 ,6,0,0.,12.0,0.,12.0,0.,12.0,0.,12.0
1981-08-29 03:40:37.350 ,6,0,0.,12.0,0.,12.0,0.,12.0,0.,12.0
1981-08-29 03:40:49.350 ,5,1,0.,12.0,0.,12.0,0.,12.0,0.,12.0
1981-08-29 03:41:01.350 ,5,1,0.,12.0,0.,12.0,0.,12.0,0.,12.0
1981-08-29 03:41:13.350 ,5,0,0.,12.0,0.,12.0,0.,12.0,0.,12.0
1981-08-29 03:41:25.350 ,5,0,0.,12.0,0.,12.0,0.,12.0,0.,12.0
1981-08-29 03:41:37.350 ,4,1,0.,12.0,0.,12.0,0.,12.0,0.,12.0
1981-08-29 03:41:49.350 ,4,1,0.,12.0,0.,12.0,0.,12.0,0.,12.0
1981-08-29 03:42:01.350 ,4,0,0.,12.0,0.,12.0,0.,12.0,0.,12.0
1981-08-29 03:42:13.350 ,4,0,0.,12.0,0.,12.0,0.,12.0,0.,12.0
1981-08-29 03:42:25.350 ,3,1,0.,12.0,0.,12.0,0.,12.0,0.,12.0
1981-08-29 03:42:37.350 ,3,1,0.,12.0,0.,12.0,0.,12.0,0.,12.0
1981-08-29 03:42:49.350 ,3,0,0.,12.0,0.,12.0,0.,12.0,0.,12.0
1981-08-29 03:43:01.350 ,3,0,0.,12.0,0.,12.0,0.,12.0,0.,12.0
1981-08-29 03:43:13.350 ,2,1,0.,12.0,0.,12.0,0.,12.0,0.,12.0
1981-08-29 03:43:25.350 ,2,1,0.,12.0,0.,12.0,0.,12.0,0.,12.0
1981-08-29 03:43:37.350 ,2,0,0.,12.0,0.,12.0,0.,12.0,0.,12.0
1981-08-29 03:43:49.350 ,2,0,0.,12.0,0.,12.0,0.,12.0,0.,12.0
1981-08-29 03:44:01.350 ,1,1,0.,12.0,0.,12.0,0.,12.0,0.,12.0
1981-08-29 03:44:13.350 ,1,1,0.,12.0,0.,12.0,0.,12.0,0.,12.0
1981-08-29 03:44:25.350 ,1,0,0.,12.0,0.,12.0,0.,12.0,0.,12.0
1981-08-29 03:44:37.350 ,1,0,0.,12.0,0.,12.0,0.,12.0,0.,12.0
1981-08-29 03:44:49.350 ,0,1,0.,12.0,0.,12.0,0.,12.0,0.,12.0
1981-08-29 03:45:01.350 ,0,1,0.,12.0,0.,12.0,0.,12.0,0.,12.0
1981-08-29 03:45:13.350 ,0,0,0.,12.0,0.,12.0,0.,12.0,0.,12.0
1981-08-29 03:45:25.350 ,0,0,0.,12.0,0.,12.0,0.,12.0,0.,12.0
1981-08-29 03:45:37.350 ,0,1,0.,12.0,0.,12.0,0.,12.0,0.,12.0
1981-08-29 03:45:49.350 ,0,1,0.,12.0,0.,12.0,0.,12.0,0.,12.0
1981-08-29 03:46:01.350 ,0,0,0.,12.0,0.,12.0,0.,12.0,0.,12.0
1981-08-29 03:46:13.350 ,0,0,0.,12.0,0.,12.0,0.,12.0,0.,12.0
1981-08-29 03:46:25.350 ,1,1,0.,12.0,0.,12.0,0.,12.0,0.,12.0
1981-08-29 03:46:37.350 ,1,1,0.,12.0,0.,12.0,0.,12.0,0.,12.0
1981-08-29 03:46:49.350 ,1,0,0.,12.0,0.,12.0,0.,12.0,0.,12.0
1981-08-29 03:47:01.350 ,1,0,0.,12.0,0.,12.0,0.,12.0,0.,12.0
1981-08-29 03:47:13.350 ,2,1,0.,12.0,0.,12.0,0.,12.0,0.,12.0
1981-08-29 03:47:25.350 ,2,1,0.,12.0,0.,12.0,0.,12.0,0.,12.0
1981-08-29 03:47:37.350 ,2,0,0.,12.0,0.,12.0,0.,12.0,0.,12.0
1981-08-29 03:47:49.350 ,2,0,0.,12.0,0.,12.0,0.,12.0,0.,12.0
1981-08-29 03:48:01.350 ,3,1,0.,12.0,0.,12.0,0.,12.0,0.,12.0
1981-08-29 03:48:13.350 ,3,1,0.,12.0,0.,12.0,0.,12.0,0.,12.0
1981-08-29 03:48:25.350 ,3,0,0.,12.0,0.,12.0,0.,12.0,0.,12.0
1981-08-29 03:48:37.350 ,3,0,0.,12.0,0.,12.0,0.,12.0,0.,12.0
1981-08-29 03:48:49.350 ,4,1,0.,12.0,0.,12.0,0.,12.0,0.,12.0
1981-08-29 03:49:01.350 ,4,1,0.,12.0,0.,12.0,0.,12.0,0.,12.0
1981-08-29 03:49:13.350 ,4,0,0.,12.0,0.,12.0,0.,12.0,0.,12.0
1981-08-29 03:49:25.350 ,4,0,0.,12.0,0.,12.0,0.,12.0,0.,12.0
1981-08-29 03:49:37.350 ,5,1,0.,12.0,0.,12.0,0.,12.0,0.,12.0
1981-08-29 03:49:49.350 ,5,1,0.,12.0,0.,12.0,0.,12.0,0.,12.0
1981-08-29 03:50:01.350 ,5,0,0.,12.0,0.,12.0,0.,12.0,0.,12.0
1981-08-29 03:50:13.350 ,5,0,0.,12.0,0.,12.0,0.,12.0,0.,12.0
1981-08-29 03:50:25.350 ,6,1,0.,12.0,0.,12.0,0.,12.0,0.,12.0
1981-08-29 03:50:37.350 ,6,1,0.,12.0,0.,12.0,0.,12.0,0.,12.0
1981-08-29 03:50:49.350 ,6,0,0.,12.0,0.,12.0,0.,12.0,0.,12.0
1981-08-29 03:51:01.350 ,6,0,0.,12.0,0.,12.0,0.,12.0,0.,12.0
1981-08-29 03:51:13.350 ,7,1,0.,12.0,0.,12.0,0.,12.0,0.,12.0
1981-08-29 03:51:25.350 ,7,1,0.,12.0,0.,12.0,0.,12.0,0.,12.0
1981-08-29 03:51:37.350 ,7,0,0.,12.0,0.,12.0,0.,12.0,0.,12.0
1981-08-29 03:51:49.350 ,7,0,0.,12.0,0.,12.0,0.,12.0,0.,12.0
1981-08-29 03:52:01.350 ,7,1,0.,12.0,0.,12.0,0.,12.0,0.,12.0
1981-08-29 03:52:13.350 ,7,1,0.,12.0,0.,12.0,0.,12.0,0.,12.0
1981-08-29 03:52:25.350 ,6,1,0.,12.0,0.,12.0,0.,12.0,0.,12.0
1981-08-29 03:52:37.350 ,6,1,0.,12.0,0.,12.0,0.,12.0,0.,12.0
1981-08-29 03:52:49.350 ,5,1,0.,12.0,0.,12.0,0.,12.0,0.,12.0
1981-08-29 03:53:01.350 ,5,1,0.,12.0,0.,12.0,0.,12.0,0.,12.0
1981-08-29 03:53:13.350 ,4,1,0.,12.0,0.,12.0,0.,12.0,0.,12.0
1981-08-29 03:53:25.350 ,4,1,0.,12.0,0.,12.0,0.,12.0,0.,12.0
1981-08-29 03:53:37.350 ,3,1,0.,12.0,0.,12.0,0.,12.0,0.,12.0
1981-08-29 03:53:49.350 ,3,1,0.,12.0,0.,12.0,0.,12.0,0.,12.0
1981-08-29 03:54:01.350 ,2,1,0.,12.0,0.,12.0,0.,12.0,0.,12.0
1981-08-29 03:54:13.350 ,2,1,0.,12.0,0.,12.0,0.,12.0,0.,12.0
1981-08-29 03:54:25.350 ,1,1,0.,12.0,0.,12.0,0.,12.0,0.,12.0
1981-08-29 03:54:37.350 ,1,1,0.,12.0,0.,12.0,0.,12.0,0.,12.0
1981-08-29 03:54:49.350 ,0,1,0.,12.0,0.,12.0,0.,12.0,0.,12.0
1981-08-29 03:55:01.350 ,0,1,0.,12.0,0.,12.0,0.,12.0,0.,12.0
1981-08-29 03:55:13.350 ,0,1,0.,12.0,0.,12.0,0.,12.0,0.,12.0
1981-08-29 03:55:25.350 ,0,1,0.,12.0,0.,12.0,0.,12.0,0.,12.0
1981-08-29 03:55:37.350 ,1,1,0.,12.0,0.,12.0,0.,12.0,0.,12.0
1981-08-29 03:55:49.350 ,1,1,0.,12.0,0.,12.0,0.,12.0,0.,12.0
1981-08-29 03:56:01.350 ,2,1,0.,12.0,0.,12.0,0.,12.0,0.,12.0
1981-08-29 03:56:13.350 ,2,1,0.,12.0,0.,12.0,0.,12.0,0.,12.0
1981-08-29 03:56:25.350 ,3,1,0.,12.0,0.,12.0,0.,12.0,0.,12.0
1981-08-29 03:56:37.350 ,3,1,0.,12.0,0.,12.0,0.,12.0,0.,12.0
1981-08-29 03:56:49.350 ,4,1,0.,12.0,0.,12.0,0.,12.0,0.,12.0
1981-08-29 03:57:01.350 ,4,1,0.,12.0,0.,12.0,0.,12.0,0.,12.0
1981-08-29 03:57:13.350 ,5,1,0.,12.0,0.,12.0,0.,12.0,0.,12.0
1981-08-29 03:57:25.350 ,5,1,0.,12.0,0.,12.0,0.,12.0,0.,12.0
1981-08-29 03:57:37.350 ,6,1,0.,12.0,0.,12.0,0.,12.0,0.,12.0
1981-08-29 03:57:49.350 ,6,1,0.,12.0,0.,12.0,0.,12.0,0.,12.0
1981-08-29 03:58:01.350 ,7,1,0.,12.0,0.,12.0,0.,12.0,0.,12.0
1981-08-29 03:58:13.350 ,7,1,0.,12.0,0.,12.0,0.,12.0,0.,12.0
1981-08-29 03:58:25.350 ,7,1,0.,12.0,0.,12.0,0.,12.0,0.,12.0
1981-08-29 03:58:37.350 ,7,1,0.,12.0,0.,12.0,0.,12.0,0.,12.0
1981-08-29 03:58:49.350 ,7,0,0.,12.0,0.,12.0,0.,12.0,0.,12.0
1981-08-29 03:59:01.350 ,7,0,0.,12.0,0.,12.0,0.,12.0,0.,12.0
1981-08-29 03:59:13.350 ,6,1,0.,12.0,0.,12.0,0.,12.0,0.,12.0
1981-08-29 03:59:25.350 ,6,1,0.,12.0,0.,12.0,0.,12.0,0.,12.0
1981-08-29 03:59:37.350 ,6,0,0.,12.0,0.,12.0,0.,12.0,0.,12.0
1981-08-29 03:59:49.350 ,6,0,0.,12.0,0.,12.0,0.,12.0,0.,12.0
1981-08-29 04:00:01.350 ,5,1,0.,12.0,0.,12.0,0.,12.0,0.,12.0
1981-08-29 04:00:13.350 ,5,1,0.,12.0,0.,12.0,0.,12.0,0.,12.0
1981-08-29 04:00:25.350 ,5,0,0.,12.0,0.,12.0,0.,12.0,0.,12.0
1981-08-29 04:00:37.350 ,5,0,0.,12.0,0.,12.0,0.,12.0,0.,12.0
1981-08-29 04:00:49.350 ,4,1,0.,12.0,0.,12.0,0.,12.0,0.,12.0
1981-08-29 04:01:01.350 ,4,1,0.,12.0,0.,12.0,0.,12.0,0.,12.0
1981-08-29 04:01:13.350 ,4,0,0.,12.0,0.,12.0,0.,12.0,0.,12.0
1981-08-29 04:01:25.350 ,4,0,0.,12.0,0.,12.0,0.,12.0,0.,12.0
1981-08-29 04:01:37.350 ,3,1,0.,12.0,0.,12.0,0.,12.0,0.,12.0
1981-08-29 04:01:49.350 ,3,1,0.,12.0,0.,12.0,0.,12.0,0.,12.0
1981-08-29 04:02:01.350 ,3,0,0.,12.0,0.,12.0,0.,12.0,0.,12.0
1981-08-29 04:02:13.350 ,3,0,0.,12.0,0.,12.0,0.,12.0,0.,12.0
1981-08-29 04:02:25.350 ,2,1,0.,12.0,0.,12.0,0.,12.0,0.,12.0
1981-08-29 04:02:37.350 ,2,1,0.,12.0,0.,12.0,0.,12.0,0.,12.0
1981-08-29 04:02:49.350 ,2,0,0.,12.0,0.,12.0,0.,12.0,0.,12.0
1981-08-29 04:03:01.350 ,2,0,0.,12.0,0.,12.0,0.,12.0,0.,12.0
1981-08-29 04:03:13.350 ,1,1,0.,12.0,0.,12.0,0.,12.0,0.,12.0
1981-08-29 04:03:25.350 ,1,1,0.,12.0,0.,12.0,0.,12.0,0.,12.0
1981-08-29 04:03:37.350 ,1,0,0.,12.0,0.,12.0,0.,12.0,0.,12.0
1981-08-29 04:03:49.350 ,1,0,0.,12.0,0.,12.0,0.,12.0,0.,12.0
1981-08-29 04:04:01.350 ,0,1,0.,12.0,0.,12.0,0.,12.0,0.,12.0
1981-08-29 04:04:13.350 ,0,1,0.,12.0,0.,12.0,0.,12.0,0.,12.0
1981-08-29 04:04:25.350 ,0,0,0.,12.0,0.,12.0,0.,12.0,0.,12.0
1981-08-29 04:04:37.350 ,0,0,0.,12.0,0.,12.0,0.,12.0,0.,12.0
1981-08-29 04:05:03.150 ,0,0,,0,,0,,0,,0
1981-08-29 04:05:15.150 ,0,0,0.,12.0,0.,12.0,0.,12.0,0.,12.0
1981-08-29 04:05:13.350 ,0,0,0.,12.0,0.,12.0,0.,12.0,0.,12.0
1981-08-29 04:05:25.350 ,0,0,0.,12.0,0.,12.0,0.,12.0,0.,12.0
1981-08-29 04:05:37.350 ,1,1,0.,12.0,0.,12.0,0.,12.0,0.,12.0
1981-08-29 04:05:49.350 ,1,1,0.,12.0,0.,12.0,0.,12.0,0.,12.0
1981-08-29 04:06:01.350 ,1,0,0.,12.0,0.,12.0,0.,12.0,0.,12.0
1981-08-29 04:06:13.350 ,1,0,0.,12.0,0.,12.0,0.,12.0,0.,12.0
1981-08-29 04:06:25.350 ,2,1,0.,12.0,0.,12.0,0.,12.0,0.,12.0
1981-08-29 04:06:37.350 ,2,1,0.,12.0,0.,12.0,0.,12.0,0.,12.0
1981-08-29 04:06:49.350 ,2,0,0.,12.0,0.,12.0,0.,12.0,0.,12.0
1981-08-29 04:07:01.350 ,2,0,0.,12.0,0.,12.0,0.,12.0,0.,12.0
1981-08-29 04:07:13.350 ,3,1,0.,12.0,0.,12.0,0.,12.0,0.,12.0
1981-08-29 04:07:25.350 ,3,1,0.,12.0,0.,12.0,0.,12.0,0.,12.0
1981-08-29 04:07:37.350 ,3,0,0.,12.0,0.,12.0,0.,12.0,0.,12.0
1981-08-29 04:07:49.350 ,3,0,0.,12.0,0.,12.0,0.,12.0,0.,12.0
1981-08-29 04:08:01.350 ,4,1,0.,12.0,0.,12.0,0.,12.0,0.,12.0
1981-08-29 04:08:13.350 ,4,1,0.,12.0,0.,12.0,0.,12.0,0.,12.0
1981-08-29 04:08:25.350 ,4,0,0.,12.0,0.,12.0,0.,12.0,0.,12.0
1981-08-29 04:08:37.350 ,4,0,0.,12.0,0.,12.0,0.,12.0,0.,12.0
1981-08-29 04:08:49.350 ,5,1,0.,12.0,0.,12.0,0.,12.0,0.,12.0
1981-08-29 04:09:01.350 ,5,1,0.,12.0,0.,12.0,0.,12.0,0.,12.0
1981-08-29 04:09:13.350 ,5,0,0.,12.0,0.,12.0,0.,12.0,0.,12.0
1981-08-29 04:09:25.350 ,5,0,0.,12.0,0.,12.0,0.,12.0,0.,12.0
1981-08-29 04:09:37.350 ,6,1,0.,12.0,0.,12.0,0.,12.0,0.,12.0
1981-08-29 04:09:49.350 ,6,1,0.,12.0,0.,12.0,0.,12.0,0.,12.0
1981-08-29 04:10:01.350 ,6,0,0.,12.0,0.,12.0,0.,12.0,0.,12.0
1981-08-29 04:10:13.350 ,6,0,0.,12.0,0.,12.0,0.,12.0,0.,12.0
1981-08-29 04:10:25.350 ,7,1,0.,12.0,0.,12.0,0.,12.0,0.,12.0
1981-08-29 04:10:37.350 ,7,1,0.,12.0,0.,12.0,0.,12.0,0.,12.0
1981-08-29 04:10:49.350 ,7,0,0.,12.0,0.,12.0,0.,12.0,0.,12.0
1981-08-29 04:11:01.350 ,7,0,0.,12.0,0.,12.0,0.,12.0,0.,12.0
1981-08-29 04:11:13.350 ,7,1,0.,12.0,0.,12.0,0.,12.0,0.,12.0
1981-08-29 04:11:25.350 ,7,1,0.,12.0,0.,12.0,0.,12.0,0.,12.0
1981-08-29 04:11:37.350 ,6,1,0.,12.0,0.,12.0,0.,12.0,0.,12.0
1981-08-29 04:11:49.350 ,6,1,0.,12.0,0.,12.0,0.,12.0,0.,12.0
1981-08-29 04:12:01.350 ,5,1,0.,12.0,0.,12.0,0.,12.0,0.,12.0
1981-08-29 04:12:13.350 ,5,1,0.,12.0,0.,12.0,0.,12.0,0.,12.0
1981-08-29 04:12:25.350 ,4,1,0.,12.0,0.,12.0,0.,12.0,0.,12.0
1981-08-29 04:12:37.350 ,4,1,0.,12.0,0.,12.0,0.,12.0,0.,12.0
1981-08-29 04:12:49.350 ,3,1,0.,12.0,0.,12.0,0.,12.0,0.,12.0
1981-08-29 04:13:01.350 ,3,1,0.,12.0,0.,12.0,0.,12.0,0.,12.0
1981-08-29 04:13:13.350 ,2,1,0.,12.0,0.,12.0,0.,12.0,0.,12.0
1981-08-29 04:13:25.350 ,2,1,0.,12.0,0.,12.0,0.,12.0,0.,12.0
1981-08-29 04:13:37.350 ,1,1,0.,12.0,0.,12.0,0.,12.0,0.,12.0
1981-08-29 04:13:49.350 ,1,1,0.,12.0,0.,12.0,0.,12.0,0.,12.0
1981-08-29 04:14:01.350 ,0,1,0.,12.0,0.,12.0,0.,12.0,0.,12.0
1981-08-29 04:14:13.350 ,0,1,0.,12.0,0.,12.0,0.,12.0,0.,12.0
1981-08-29 04:14:25.350 ,0,1,0.,12.0,0.,12.0,0.,12.0,0.,12.0
1981-08-29 04:14:37.350 ,0,1,0.,12.0,0.,12.0,0.,12.0,0.,12.0
1981-08-29 04:14:49.350 ,1,1,0.,12.0,0.,12.0,0.,12.0,0.,12.0
1981-08-29 04:15:01.350 ,1,1,0.,12.0,0.,12.0,0.,12.0,0.,12.0
1981-08-29 04:15:13.350 ,2,1,0.,12.0,0.,12.0,0.,12.0,0.,12.0
1981-08-29 04:15:25.350 ,2,1,0.,12.0,0.,12.0,0.,12.0,0.,12.0
1981-08-29 04:15:37.350 ,3,1,0.,12.0,0.,12.0,0.,12.0,0.,12.0
1981-08-29 04:15:49.350 ,3,1,0.,12.0,0.,12.0,0.,12.0,0.,12.0
1981-08-29 04:16:01.350 ,4,1,0.,12.0,0.,12.0,0.,12.0,0.,12.0
1981-08-29 04:16:13.350 ,4,1,0.,12.0,0.,12.0,0.,12.0,0.,12.0
1981-08-29 04:16:25.350 ,5,1,0.,12.0,0.,12.0,0.,12.0,0.,12.0
1981-08-29 04:16:37.350 ,5,1,0.,12.0,0.,12.0,0.,12.0,0.,12.0
1981-08-29 04:16:49.350 ,6,1,0.,12.0,0.,12.0,0.,12.0,0.,12.0
1981-08-29 04:17:01.350 ,6,1,0.,12.0,0.,12.0,0.,12.0,0.,12.0
1981-08-29 04:17:13.350 ,7,1,0.,12.0,0.,12.0,0.,12.0,0.,12.0
1981-08-29 04:17:25.350 ,7,1,0.,12.0,0.,12.0,0.,12.0,0.,12.0